| time (UTC) | temp F | wind direction | speed knots | gust knots | rain 1hr in | rain 24hr in | rain mn in | humidity % | barometer mb |
| 20260903133055 | 62 | 0 | 0.0 | 0.9 | 0.00 | 0.00 | 0.00 | 85 | 1013.9 |
| 20260903131553 | 62 | 0 | 0.0 | 0.9 | 0.00 | 0.00 | 0.00 | 85 | 1013.8 |
| 20260903130051 | 62 | 0 | 0.0 | 1.7 | 0.00 | 0.00 | 0.00 | 85 | 1013.8 |
| 20260903124553 | 63 | 0 | 0.0 | 0.9 | 0.00 | 0.00 | 0.00 | 85 | 1013.8 |
| 20260903123045 | 63 | 0 | 0.0 | 0.0 | 0.00 | 0.00 | 0.00 | 84 | 1013.7 |
| 20260903121549 | 63 | 0 | 0.0 | 0.0 | 0.00 | 0.00 | 0.00 | 85 | 1013.7 |
| 20260903120057 | 63 | 0 | 0.0 | 0.0 | 0.00 | 0.00 | 0.00 | 84 | 1013.7 |
| 20260903114547 | 63 | 0 | 0.0 | 0.9 | 0.00 | 0.00 | 0.00 | 84 | 1013.8 |
| 20260903113131 | 63 | 0 | 0.0 | 0.9 | 0.00 | 0.00 | 0.00 | 84 | 1013.9 |
| 20260903111549 | 63 | 0 | 0.0 | 1.7 | 0.00 | 0.00 | 0.00 | 84 | 1014.0 |
| 20260903110051 | 63 | 0 | 0.0 | 1.7 | 0.00 | 0.00 | 0.00 | 84 | 1013.9 |
| 20260903104608 | 63 | 0 | 0.0 | 0.9 | 0.00 | 0.00 | 0.00 | 83 | 1014.0 |
| 20260903103052 | 63 | 0 | 0.0 | 0.0 | 0.00 | 0.00 | 0.00 | 83 | 1014.1 |
| 20260903101556 | 63 | 0 | 0.0 | 0.0 | 0.00 | 0.00 | 0.00 | 83 | 1014.2 |
| 20260903100047 | 64 | 0 | 0.0 | 0.0 | 0.00 | 0.00 | 0.00 | 82 | 1014.2 |
| 20260903094552 | 64 | 0 | 0.0 | 0.0 | 0.00 | 0.00 | 0.00 | 82 | 1014.3 |
| 20260903093051 | 64 | 0 | 0.0 | 0.0 | 0.00 | 0.00 | 0.00 | 82 | 1014.3 |
| 20260903091551 | 64 | 0 | 0.0 | 0.0 | 0.00 | 0.00 | 0.00 | 81 | 1014.5 |
| 20260903090050 | 64 | 0 | 0.0 | 0.0 | 0.00 | 0.00 | 0.00 | 80 | 1014.7 |
| 20260903084548 | 65 | 0 | 0.0 | 0.0 | 0.00 | 0.00 | 0.00 | 80 | 1014.8 |
| 20260903083057 | 65 | 0 | 0.0 | 0.0 | 0.00 | 0.00 | 0.00 | 80 | 1014.9 |
| 20260903081549 | 65 | 0 | 0.0 | 0.0 | 0.00 | 0.00 | 0.00 | 79 | 1014.9 |
| 20260903080049 | 66 | 0 | 0.0 | 0.0 | 0.00 | 0.00 | 0.00 | 79 | 1015.1 |
| 20260903074545 | 66 | 0 | 0.0 | 0.0 | 0.00 | 0.00 | 0.00 | 78 | 1015.2 |
| 20260903073046 | 66 | 0 | 0.0 | 0.0 | 0.00 | 0.00 | 0.00 | 77 | 1015.0 |
| 20260903071559 | 66 | 0 | 0.0 | 0.0 | 0.00 | 0.00 | 0.00 | 76 | 1014.9 |
| 20260903070047 | 67 | 0 | 0.0 | 0.0 | 0.00 | 0.00 | 0.00 | 75 | 1015.0 |
| 20260903064600 | 67 | 0 | 0.0 | 0.9 | 0.00 | 0.00 | 0.00 | 74 | 1015.0 |
| 20260903063053 | 68 | 0 | 0.0 | 0.0 | 0.00 | 0.00 | 0.00 | 73 | 1014.9 |
| 20260903061550 | 69 | 0 | 0.0 | 0.9 | 0.00 | 0.00 | 0.00 | 73 | 1014.7 |
| 20260903060104 | 69 | 131 | 0.0 | 1.7 | 0.00 | 0.00 | 0.00 | 72 | 1014.7 |
| 20260903054556 | 69 | 203 | 0.9 | 4.3 | 0.00 | 0.00 | 0.00 | 72 | 1014.6 |
| 20260903053053 | 69 | 177 | 1.7 | 3.5 | 0.00 | 0.00 | 0.00 | 71 | 1014.7 |
| 20260903051607 | 69 | 0 | 0.0 | 2.6 | 0.00 | 0.00 | 0.00 | 70 | 1014.9 |
| 20260903050055 | 69 | 0 | 0.0 | 1.7 | 0.00 | 0.00 | 0.00 | 70 | 1014.7 |
| 20260903044545 | 69 | 0 | 0.0 | 2.6 | 0.00 | 0.00 | 0.00 | 70 | 1014.7 |
| 20260903043145 | 69 | 0 | 0.0 | 1.7 | 0.00 | 0.00 | 0.00 | 69 | 1014.7 |
| 20260903041549 | 69 | 0 | 0.0 | 1.7 | 0.00 | 0.00 | 0.00 | 69 | 1014.6 |
| 20260903040047 | 70 | 0 | 0.0 | 0.9 | 0.00 | 0.00 | 0.00 | 69 | 1014.6 |
| 20260903034554 | 70 | 294 | 0.0 | 3.5 | 0.00 | 0.00 | 0.00 | 68 | 1014.3 |
| 20260903033051 | 71 | 323 | 0.0 | 3.5 | 0.00 | 0.00 | 0.00 | 68 | 1014.2 |
| 20260903031546 | 71 | 314 | 0.9 | 3.5 | 0.00 | 0.00 | 0.00 | 68 | 1014.1 |
| 20260903030046 | 71 | 0 | 0.0 | 3.5 | 0.00 | 0.00 | 0.00 | 67 | 1014.2 |
| 20260903024551 | 71 | 0 | 0.9 | 3.5 | 0.00 | 0.00 | 0.00 | 67 | 1014.1 |
| 20260903023049 | 72 | 0 | 0.0 | 2.6 | 0.00 | 0.00 | 0.00 | 66 | 1014.1 |
| 20260903021546 | 72 | 344 | 0.9 | 3.5 | 0.00 | 0.00 | 0.00 | 65 | 1014.1 |
| 20260903020045 | 73 | 288 | 0.0 | 3.5 | 0.00 | 0.00 | 0.00 | 64 | 1014.0 |
| 20260903014553 | 74 | 291 | 0.9 | 3.5 | 0.00 | 0.00 | 0.00 | 64 | 1013.9 |
| 20260903013107 | 75 | 307 | 0.9 | 4.3 | 0.00 | 0.00 | 0.00 | 64 | 1013.9 |
| 20260903011558 | 76 | 298 | 1.7 | 4.3 | 0.00 | 0.00 | 0.00 | 64 | 1013.9 |
| 20260903010056 | 76 | 311 | 1.7 | 5.2 | 0.00 | 0.00 | 0.00 | 62 | 1013.9 |
| 20260903004551 | 77 | 295 | 1.7 | 7.0 | 0.00 | 0.00 | 0.00 | 59 | 1013.9 |
| 20260903003050 | 79 | 290 | 1.7 | 7.0 | 0.00 | 0.00 | 0.00 | 55 | 1013.8 |
| 20260903001546 | 81 | 286 | 2.6 | 7.0 | 0.00 | 0.00 | 0.00 | 53 | 1013.8 |
| 20260903000056 | 82 | 314 | 1.7 | 7.0 | 0.00 | 0.00 | 0.00 | 48 | 1013.9 |
| 20260902234614 | 83 | 333 | 1.7 | 7.0 | 0.00 | 0.00 | 0.00 | 47 | 1013.8 |
| 20260902233048 | 84 | 260 | 1.7 | 6.1 | 0.00 | 0.00 | 0.00 | 45 | 1014.0 |
| 20260902231553 | 83 | 321 | 0.9 | 7.8 | 0.00 | 0.00 | 0.00 | 47 | 1014.0 |
| 20260902230050 | 83 | 227 | 1.7 | 5.2 | 0.00 | 0.00 | 0.00 | 50 | 1014.0 |
| 20260902224605 | 82 | 231 | 1.7 | 6.1 | 0.00 | 0.00 | 0.00 | 51 | 1014.1 |
| 20260902223051 | 82 | 160 | 2.6 | 7.8 | 0.00 | 0.00 | 0.00 | 51 | 1014.3 |
| 20260902221549 | 81 | 156 | 2.6 | 10.4 | 0.00 | 0.00 | 0.00 | 52 | 1014.5 |
| 20260902220050 | 82 | 223 | 2.6 | 7.8 | 0.00 | 0.00 | 0.00 | 50 | 1014.7 |
| 20260902214601 | 81 | 205 | 2.6 | 8.7 | 0.00 | 0.00 | 0.00 | 50 | 1014.9 |
| 20260902213050 | 80 | 194 | 5.2 | 9.6 | 0.00 | 0.00 | 0.00 | 53 | 1015.1 |
| 20260902211547 | 80 | 203 | 4.3 | 9.6 | 0.00 | 0.00 | 0.00 | 53 | 1015.1 |
| 20260902210057 | 81 | 221 | 4.3 | 10.4 | 0.00 | 0.00 | 0.00 | 54 | 1015.3 |
| 20260902204555 | 81 | 157 | 2.6 | 7.8 | 0.00 | 0.00 | 0.00 | 53 | 1015.4 |
| 20260902203049 | 80 | 213 | 2.6 | 7.0 | 0.00 | 0.00 | 0.00 | 54 | 1015.4 |
| 20260902201603 | 80 | 157 | 3.5 | 8.7 | 0.00 | 0.00 | 0.00 | 52 | 1015.5 |
| 20260902200057 | 80 | 221 | 3.5 | 7.8 | 0.00 | 0.00 | 0.00 | 55 | 1015.6 |
| 20260902194544 | 80 | 0 | 1.7 | 9.6 | 0.00 | 0.00 | 0.00 | 53 | 1015.7 |
| 20260902193051 | 80 | 175 | 0.9 | 5.2 | 0.00 | 0.00 | 0.00 | 53 | 1015.7 |
| 20260902191550 | 79 | 208 | 0.9 | 7.0 | 0.00 | 0.00 | 0.00 | 56 | 1016.0 |
| 20260902190058 | 78 | 244 | 2.6 | 6.1 | 0.00 | 0.00 | 0.00 | 58 | 1016.2 |
| 20260902184546 | 78 | 186 | 1.7 | 7.0 | 0.00 | 0.00 | 0.00 | 60 | 1016.4 |
| 20260902183048 | 77 | 209 | 1.7 | 6.1 | 0.00 | 0.00 | 0.00 | 61 | 1016.4 |
| 20260902181549 | 77 | 214 | 2.6 | 7.0 | 0.00 | 0.00 | 0.00 | 61 | 1016.4 |
| 20260902180049 | 77 | 221 | 0.9 | 6.1 | 0.00 | 0.00 | 0.00 | 62 | 1016.6 |
| 20260902174543 | 77 | 293 | 1.7 | 6.1 | 0.00 | 0.00 | 0.00 | 62 | 1016.6 |
| 20260902173050 | 75 | 17 | 1.7 | 4.3 | 0.00 | 0.00 | 0.00 | 63 | 1016.5 |
| 20260902171547 | 75 | 0 | 1.7 | 5.2 | 0.00 | 0.00 | 0.00 | 65 | 1016.4 |
| 20260902170051 | 74 | 167 | 1.7 | 5.2 | 0.00 | 0.00 | 0.00 | 67 | 1016.4 |
| 20260902164548 | 73 | 132 | 0.9 | 3.5 | 0.00 | 0.00 | 0.00 | 70 | 1016.4 |
| 20260902163045 | 72 | 119 | 0.0 | 4.3 | 0.00 | 0.00 | 0.00 | 73 | 1016.4 |
| 20260902161554 | 71 | 196 | 0.9 | 4.3 | 0.00 | 0.00 | 0.00 | 78 | 1016.3 |
| 20260902160050 | 69 | 196 | 0.9 | 3.5 | 0.00 | 0.00 | 0.00 | 82 | 1016.2 |
| 20260902154549 | 68 | 238 | 0.9 | 3.5 | 0.00 | 0.00 | 0.00 | 84 | 1016.2 |
| 20260902153054 | 66 | 170 | 0.9 | 3.5 | 0.00 | 0.00 | 0.00 | 86 | 1016.2 |
| 20260902151553 | 65 | 0 | 0.0 | 2.6 | 0.00 | 0.00 | 0.00 | 87 | 1016.3 |
| 20260902150049 | 63 | 190 | 0.0 | 2.6 | 0.00 | 0.00 | 0.00 | 87 | 1016.2 |
| 20260902144546 | 62 | 0 | 0.0 | 0.0 | 0.00 | 0.00 | 0.00 | 87 | 1016.2 |
| 20260902143057 | 61 | 0 | 0.0 | 0.9 | 0.00 | 0.00 | 0.00 | 87 | 1015.9 |
| 20260902141550 | 60 | 0 | 0.0 | 0.0 | 0.00 | 0.00 | 0.00 | 86 | 1015.8 |
| 20260902140049 | 59 | 0 | 0.0 | 0.0 | 0.00 | 0.00 | 0.00 | 86 | 1015.7 |
| 20260902134547 | 58 | 0 | 0.0 | 0.0 | 0.00 | 0.00 | 0.00 | 86 | 1015.7 |